User: anonymous   Login
Location: Unspecified
(0.0000°N, 0.0000°E)
Time: 09:59:34
(UTC+00:00)
Language:

STARLINK-35036 - Orbit

View from above orbital plane
View from above orbital plane
View from above satellite
View from above satellite

Ground track
Ground track

The orbit is defined by the following mean orbital elements,

1 65406U          26145.24172353 +.00000000 +00000-0 +47265-3 0 00006
2 65406  53.1573 236.8487 0001221  87.4355 272.6786 15.30210377    00
Epoch (UTC): 25 May 2026 05:48:04
Eccentricity: 0.0001221
inclination: 53.1573°
perigee height: 474 km
apogee height: 476 km
right ascension of ascending node: 236.8487°
argument of perigee: 87.4355°
revolutions per day: 15.30210377
mean anomaly at epoch: 272.6786°

The dashed part of the orbit path shows where the satellite is in the earth's shadow,  

DLR